FW6321 Weather Reports


time (UTC)temp
F
wind
direction
speed
knots
gust
knots
rain 1hr
in
rain 24hr
in
rain mn
in
humidity
%
barometer
mb
20260904204106 65 247 5.2 13.0 0.00 0.09 0.09 75 1016.3
20260904204055 65 233 5.2 9.6 0.00 0.09 0.09 75 1016.1
20260904203105 65 231 5.2 9.6 0.00 0.09 0.09 76 1016.1
20260904202604 65 230 6.1 10.4 0.00 0.09 0.09 76 1016.1
20260904202116 65 237 5.2 11.3 0.00 0.09 0.09 76 1015.9
20260904202106 65 245 6.1 10.4 0.00 0.09 0.09 76 1016.0
20260904201104 65 233 4.3 11.3 0.00 0.09 0.09 76 1016.1
20260904201045 65 229 4.3 9.6 0.00 0.09 0.09 76 1016.0
20260904200104 65 254 4.3 9.6 0.00 0.09 0.09 76 1015.9
20260904195603 65 242 4.3 8.7 0.00 0.09 0.09 76 1015.8
20260904195104 65 210 4.3 7.8 0.00 0.09 0.09 76 1015.7
20260904194604 65 262 4.3 7.8 0.00 0.09 0.09 76 1015.7
20260904194105 65 229 3.5 8.7 0.00 0.09 0.09 75 1015.6
20260904193602 65 239 3.5 8.7 0.00 0.09 0.09 75 1015.5
20260904193102 65 239 2.6 7.0 0.00 0.09 0.09 75 1015.6
20260904193051 65 236 3.5 7.8 0.00 0.09 0.09 74 1015.5
20260904192102 66 226 4.3 8.7 0.00 0.09 0.09 74 1015.4
20260904191609 66 232 5.2 9.6 0.00 0.09 0.09 74 1015.3
20260904191105 66 230 6.1 11.3 0.00 0.09 0.09 74 1015.4
20260904191052 66 241 7.0 13.0 0.00 0.09 0.09 74 1015.3
20260904190110 66 237 6.1 15.6 0.00 0.09 0.09 74 1015.2
20260904185604 66 247 5.2 15.6 0.00 0.09 0.09 75 1015.1
20260904185105 66 252 4.3 9.6 0.00 0.09 0.09 76 1015.0
20260904184608 66 249 4.3 9.6 0.00 0.09 0.09 76 1014.8
20260904184102 66 266 6.1 13.9 0.00 0.09 0.09 76 1015.0
20260904183604 66 272 6.1 13.9 0.00 0.09 0.09 76 1014.9
20260904183253 66 259 5.2 11.3 0.00 0.09 0.09 76 1014.7
20260904183150 66 232 5.2 13.0 0.00 0.09 0.09 76 1014.8
20260904182641 66 260 5.2 11.3 0.00 0.09 0.09 76 1014.7
20260904181604 66 229 7.0 13.0 0.00 0.09 0.09 76 1014.6
20260904181105 66 241 7.0 13.0 0.00 0.09 0.09 76 1014.5
20260904180603 66 249 7.0 13.9 0.00 0.09 0.09 76 1014.6
20260904180134 66 266 6.1 10.4 0.00 0.09 0.09 75 1014.5
20260904180114 66 242 6.1 13.9 0.00 0.09 0.09 76 1014.5
20260904175105 67 282 7.0 13.9 0.00 0.09 0.09 75 1014.5
20260904174607 67 235 7.0 15.6 0.00 0.09 0.09 75 1014.6
20260904174551 67 225 7.0 15.6 0.00 0.09 0.09 74 1014.5
20260904173604 67 233 7.8 14.8 0.00 0.09 0.09 74 1014.3
20260904173101 67 239 7.8 13.0 0.00 0.09 0.09 74 1014.2
20260904172603 67 239 7.8 16.5 0.00 0.09 0.09 74 1014.3
20260904172103 67 219 7.8 16.5 0.00 0.09 0.09 74 1014.1
20260904171602 67 248 7.8 14.8 0.00 0.09 0.09 74 1014.0
20260904171102 67 224 8.7 16.5 0.00 0.09 0.09 74 1014.2
20260904170604 67 254 9.6 16.5 0.00 0.09 0.09 74 1014.0
20260904170104 67 256 10.4 20.0 0.00 0.09 0.09 74 1014.1
20260904165602 67 233 9.6 20.0 0.00 0.09 0.09 74 1013.8
20260904165103 67 254 8.7 16.5 0.00 0.09 0.09 75 1013.8
20260904164604 67 232 8.7 17.4 0.00 0.09 0.09 76 1013.6
20260904164553 67 216 8.7 17.4 0.00 0.09 0.09 77 1013.6
20260904163602 68 273 8.7 20.0 0.00 0.09 0.09 78 1013.8
20260904163106 68 261 9.6 20.0 0.00 0.09 0.09 78 1013.7
20260904162628 68 274 7.8 20.0 0.00 0.09 0.09 79 1013.4
20260904162607 68 245 7.8 20.0 0.00 0.09 0.09 79 1013.6
20260904161606 68 245 9.6 20.0 0.00 0.09 0.09 78 1013.6
20260904161559 68 251 7.8 20.0 0.00 0.09 0.09 78 1013.3
20260904160604 68 237 8.7 19.1 0.00 0.09 0.09 78 1013.3
20260904160104 68 242 10.4 19.1 0.00 0.09 0.09 77 1013.5
20260904155603 68 262 10.4 20.0 0.00 0.09 0.09 77 1013.4
20260904155551 68 231 7.8 17.4 0.00 0.09 0.09 78 1013.4
20260904155308 68 226 10.4 20.0 0.00 0.09 0.09 77 1013.5
20260904154105 68 250 7.8 14.8 0.00 0.09 0.09 79 1013.2
20260904153602 68 256 9.6 17.4 0.00 0.09 0.09 79 1013.4
20260904153104 68 236 9.6 17.4 0.00 0.09 0.09 79 1013.4
20260904152559 68 191 9.6 22.6 0.00 0.09 0.09 79 1013.4
20260904152100 68 243 10.4 22.6 0.00 0.09 0.09 78 1013.3
20260904151558 68 234 10.4 25.2 0.00 0.09 0.09 78 1013.4
20260904151101 68 246 11.3 25.2 0.00 0.09 0.09 78 1013.4
20260904150558 68 256 12.2 23.5 0.00 0.09 0.09 79 1013.2
20260904150059 68 233 12.2 24.3 0.00 0.09 0.09 79 1013.2
20260904150047 68 245 9.6 20.0 0.00 0.09 0.09 82 1013.0
20260904145807 68 240 10.4 24.3 0.00 0.09 0.09 80 1013.2
20260904144602 68 236 8.7 14.8 0.00 0.09 0.09 84 1012.9
20260904144059 68 215 8.7 13.9 0.00 0.09 0.09 85 1012.9
20260904143600 68 233 9.6 17.4 0.00 0.09 0.09 86 1013.0
20260904143054 68 242 9.6 17.4 0.00 0.09 0.09 86 1013.1
20260904142555 67 229 9.6 17.4 0.00 0.09 0.09 88 1012.9
20260904142057 67 244 8.7 18.2 0.00 0.09 0.09 88 1012.7
20260904141555 67 209 7.0 18.2 0.00 0.09 0.09 90 1012.6
20260904141054 67 258 7.0 13.9 0.00 0.09 0.09 90 1012.6
20260904140555 67 185 7.0 15.6 0.00 0.09 0.09 90 1012.7
20260904140056 67 229 7.8 15.6 0.00 0.09 0.09 91 1012.8
20260904135557 67 233 7.8 12.2 0.00 0.09 0.09 91 1012.7
20260904135110 66 214 9.6 18.2 0.00 0.09 0.09 91 1012.4
20260904135055 66 205 8.7 18.2 0.00 0.09 0.09 91 1012.6
20260904134054 66 229 9.6 18.2 0.00 0.09 0.09 91 1012.3
20260904133554 66 255 9.6 23.5 0.00 0.09 0.09 92 1012.4
20260904133055 66 235 8.7 23.5 0.00 0.09 0.09 92 1012.1
20260904132554 66 238 8.7 18.2 0.00 0.09 0.09 93 1012.2
20260904132053 66 214 9.6 14.8 0.00 0.09 0.09 94 1012.1
20260904131554 66 228 8.7 17.4 0.00 0.09 0.09 94 1012.2
20260904131546 66 259 8.7 17.4 0.01 0.09 0.09 94 1012.2
20260904131040 66 230 7.8 15.6 0.01 0.09 0.09 95 1012.0
20260904130051 66 222 7.0 14.8 0.01 0.09 0.09 95 1012.2
20260904125553 66 242 6.1 12.2 0.01 0.09 0.09 95 1012.1
20260904125054 66 256 6.1 12.2 0.02 0.09 0.09 95 1012.1
20260904124555 66 262 7.8 16.5 0.07 0.09 0.09 95 1012.1
20260904124053 66 231 9.6 16.5 0.07 0.09 0.09 95 1011.9
20260904123553 66 239 9.6 17.4 0.07 0.09 0.09 95 1012.0
20260904123056 66 200 10.4 20.0 0.07 0.09 0.09 95 1011.9
20260904122555 66 256 10.4 20.0 0.08 0.09 0.09 94 1011.9
20260904122054 66 231 9.6 20.9 0.09 0.09 0.09 95 1011.8
20260904121552 66 288 10.4 20.9 0.09 0.09 0.08 94 1011.8
20260904121055 66 231 9.6 17.4 0.08 0.08 0.08 94 1011.8
20260904121043 66 250 7.8 17.4 0.08 0.08 0.08 94 1011.7
20260904120052 66 247 7.8 16.5 0.08 0.08 0.08 93 1011.6
20260904115548 67 281 8.7 16.5 0.08 0.08 0.08 92 1011.6
20260904115049 67 281 7.0 13.9 0.07 0.07 0.06 91 1011.5
20260904114550 68 278 7.0 19.1 0.02 0.02 0.02 91 1011.2
20260904114049 69 274 9.6 19.1 0.02 0.02 0.02 92 1011.3
20260904113553 69 229 10.4 22.6 0.02 0.02 0.02 92 1011.0
20260904113542 70 239 11.3 22.6 0.02 0.02 0.02 91 1011.1
20260904112549 70 225 11.3 21.7 0.01 0.01 0.01 90 1011.1
20260904112048 70 237 13.0 30.4 0.00 0.00 0.00 89 1011.0
20260904111548 70 249 13.0 30.4 0.00 0.00 0.00 89 1011.0
20260904111541 71 218 12.2 27.8 0.00 0.01 0.00 87 1010.8
20260904110600 71 139 13.0 26.9 0.00 0.01 0.00 86 1010.9
20260904110055 72 277 13.9 28.7 0.00 0.01 0.00 84 1010.8
20260904110044 72 179 13.0 26.9 0.00 0.01 0.00 85 1011.0
20260904105037 72 48 13.9 28.7 0.00 0.01 0.00 84 1010.9
20260904104535 72 239 13.9 26.1 0.00 0.01 0.00 85 1011.0
20260904104033 72 229 13.0 26.1 0.00 0.01 0.00 85 1011.0
20260904103535 72 238 13.9 26.1 0.00 0.01 0.00 85 1010.9
20260904103031 71 206 14.8 30.4 0.00 0.01 0.00 85 1010.9
20260904102532 71 194 13.9 30.4 0.00 0.01 0.00 85 1010.9
20260904102035 71 229 13.9 26.9 0.00 0.01 0.00 85 1011.0
20260904101552 71 241 14.8 28.7 0.00 0.01 0.00 87 1011.3
20260904101533 71 218 13.9 24.3 0.00 0.01 0.00 86 1011.0
20260904100530 71 214 13.9 29.5 0.00 0.01 0.00 87 1011.0
20260904100033 71 253 11.3 29.5 0.00 0.01 0.00 88 1011.0
20260904095531 71 263 9.6 21.7 0.00 0.01 0.00 88 1011.0
20260904095033 71 216 9.6 18.2 0.00 0.01 0.00 88 1011.0
20260904094532 71 183 9.6 18.2 0.00 0.01 0.00 88 1010.9
20260904094036 71 197 9.6 19.1 0.00 0.01 0.00 88 1011.0
20260904094025 71 216 9.6 19.1 0.00 0.01 0.00 88 1011.0
20260904093527 71 241 8.7 18.2 0.00 0.01 0.00 89 1011.0
20260904092536 71 210 8.7 16.5 0.00 0.01 0.00 89 1011.1
20260904092030 71 236 8.7 16.5 0.00 0.01 0.00 89 1011.1
20260904091530 71 214 7.8 21.7 0.00 0.01 0.00 89 1011.1
20260904091033 70 256 9.6 21.7 0.00 0.01 0.00 90 1011.1
20260904090622 70 245 7.8 17.4 0.00 0.01 0.00 90 1011.1
20260904090547 70 185 8.7 20.0 0.00 0.01 0.00 89 1011.2
20260904090038 70 208 8.7 17.4 0.00 0.01 0.00 90 1011.1
20260904085035 70 215 8.7 18.2 0.00 0.01 0.00 90 1010.9
20260904085026 70 200 8.7 18.2 0.00 0.01 0.00 90 1010.9
20260904084031 70 229 8.7 17.4 0.00 0.01 0.00 90 1011.0
20260904084020 70 202 9.6 25.2 0.00 0.01 0.00 89 1011.0
20260904083030 70 185 8.7 25.2 0.00 0.01 0.00 89 1011.0
20260904082537 70 185 8.7 24.3 0.00 0.01 0.00 89 1010.9
20260904082032 70 231 9.6 26.1 0.00 0.01 0.00 89 1011.0
20260904081533 70 235 9.6 26.1 0.00 0.01 0.00 89 1010.9
20260904081031 70 224 8.7 15.6 0.00 0.01 0.00 89 1010.9
20260904080532 70 251 9.6 21.7 0.00 0.02 0.00 89 1011.0
20260904080027 70 234 8.7 21.7 0.00 0.02 0.00 89 1011.0
20260904075528 70 241 8.7 21.7 0.00 0.02 0.00 89 1010.9
20260904075027 70 235 10.4 22.6 0.00 0.02 0.00 89 1010.9
20260904074527 70 251 10.4 22.6 0.00 0.02 0.00 89 1011.0
20260904074028 70 196 10.4 20.0 0.00 0.02 0.00 89 1011.0
20260904073939 70 236 8.7 22.6 0.00 0.02 0.00 90 1011.2
20260904073603 70 209 11.3 23.5 0.00 0.02 0.00 89 1011.1
20260904073109 70 204 11.3 25.2 0.00 0.02 0.00 89 1011.0
20260904072622 70 235 9.6 25.2 0.00 0.02 0.00 89 1011.2
20260904072146 71 164 8.7 20.9 0.00 0.02 0.00 89 1011.1
20260904071027 70 229 9.6 22.6 0.00 0.02 0.00 90 1011.0
20260904070545 70 172 10.4 23.5 0.00 0.03 0.00 90 1011.1
20260904070029 70 203 9.6 23.5 0.00 0.03 0.00 90 1011.1
20260904065528 70 237 9.6 26.9 0.00 0.03 0.00 90 1011.1
20260904065025 70 164 10.4 26.9 0.00 0.03 0.00 90 1011.1
20260904064527 70 185 9.6 22.6 0.00 0.03 0.00 90 1011.2
20260904064025 70 247 9.6 18.2 0.00 0.03 0.00 90 1011.2
20260904063526 70 201 8.7 18.2 0.00 0.03 0.00 90 1011.2
20260904063024 70 233 8.7 18.2 0.00 0.04 0.00 90 1011.3
20260904062526 70 191 8.7 21.7 0.00 0.04 0.00 90 1011.4
20260904062515 70 194 9.6 22.6 0.00 0.04 0.00 89 1011.5
20260904061525 70 226 8.7 22.6 0.00 0.04 0.00 89 1011.6
20260904061022 69 168 7.8 15.6 0.00 0.04 0.00 89 1011.5
20260904061004 69 233 8.7 15.6 0.00 0.04 0.00 89 1011.7
20260904060023 69 241 7.8 16.5 0.00 0.05 0.00 89 1011.7
20260904055521 69 210 7.8 18.2 0.00 0.05 0.00 89 1011.6
20260904055022 69 294 7.8 18.2 0.00 0.05 0.00 90 1011.5
20260904054524 69 237 7.0 14.8 0.00 0.06 0.00 90 1011.7
20260904054024 69 204 7.0 14.8 0.00 0.06 0.00 90 1011.7
20260904053523 69 193 7.8 15.6 0.00 0.06 0.00 90 1011.9
20260904053022 69 177 7.8 16.5 0.00 0.06 0.00 90 1011.9
20260904052523 69 229 8.7 17.4 0.00 0.06 0.00 90 1012.0
20260904052024 69 213 7.8 23.5 0.00 0.06 0.00 90 1012.1
20260904051525 69 272 6.1 23.5 0.00 0.06 0.00 90 1012.1
20260904051139 69 217 8.7 18.2 0.00 0.06 0.00 89 1012.2
20260904051047 69 210 7.0 15.6 0.00 0.06 0.00 89 1012.3
20260904050021 69 222 9.6 18.2 0.00 0.06 0.00 89 1012.5
20260904045655 69 204 8.7 23.5 0.00 0.06 0.00 89 1012.6
20260904045552 69 241 10.4 23.5 0.00 0.06 0.00 89 1012.5
20260904044634 69 237 7.8 23.5 0.00 0.06 0.00 89 1012.7
20260904044544 69 197 7.8 20.0 0.00 0.06 0.00 89 1012.7
20260904043522 69 215 8.7 23.5 0.00 0.06 0.00 89 1012.7
20260904043022 69 210 7.8 15.6 0.00 0.06 0.00 89 1012.8
20260904042519 69 179 7.0 15.6 0.00 0.06 0.00 89 1012.8
20260904042017 69 255 7.8 15.6 0.00 0.06 0.00 89 1013.0
20260904041957 69 197 7.0 15.6 0.00 0.06 0.00 89 1013.0
20260904041018 69 182 7.8 15.6 0.00 0.06 0.00 89 1013.1
20260904040518 69 216 8.7 20.0 0.00 0.06 0.00 89 1013.1
20260904040019 69 236 7.8 20.0 0.00 0.06 0.00 89 1013.2
20260904035522 69 207 7.8 17.4 0.00 0.06 0.00 89 1013.3
20260904035018 69 214 8.7 18.2 0.00 0.06 0.00 89 1013.3
20260904034521 69 258 8.7 18.2 0.00 0.06 0.00 89 1013.2
20260904034018 69 208 7.8 18.2 0.00 0.06 0.00 89 1013.2
20260904033518 69 245 8.7 16.5 0.00 0.06 0.00 89 1013.3
20260904033017 69 178 8.7 16.5 0.00 0.06 0.00 89 1013.3
20260904032518 69 194 7.0 16.5 0.00 0.06 0.00 89 1013.4
20260904032015 69 218 7.8 20.0 0.00 0.06 0.00 89 1013.4
20260904031515 69 164 7.8 20.0 0.00 0.06 0.00 89 1013.4
20260904031016 69 172 7.0 13.9 0.00 0.06 0.00 89 1013.5
20260904030515 69 243 7.8 17.4 0.00 0.06 0.00 89 1013.5
20260904030504 69 177 7.0 17.4 0.00 0.06 0.00 89 1013.6
20260904025519 69 216 7.0 17.4 0.00 0.06 0.00 90 1013.6
20260904025010 69 223 7.0 17.4 0.00 0.06 0.00 90 1013.7
20260904024509 69 227 7.8 16.5 0.00 0.06 0.00 90 1013.7
20260904024013 69 204 7.8 16.5 0.00 0.06 0.00 90 1013.7
20260904023950 69 214 7.0 13.9 0.00 0.06 0.00 90 1013.9
20260904023011 69 239 7.8 14.8 0.00 0.06 0.00 90 1013.8
20260904022509 69 205 7.8 14.8 0.00 0.06 0.00 90 1013.9
20260904022033 69 197 7.0 16.5 0.00 0.06 0.00 91 1014.0
20260904022016 69 225 7.0 13.9 0.00 0.06 0.00 90 1013.9
20260904021009 69 244 6.1 16.5 0.00 0.06 0.00 91 1013.9
20260904020509 69 205 5.2 13.9 0.00 0.06 0.00 91 1014.1
20260904020021 69 204 6.1 15.6 0.00 0.06 0.00 91 1014.2
20260904015503 69 163 6.1 16.5 0.00 0.06 0.00 91 1014.3
20260904015003 69 231 6.1 16.5 0.00 0.06 0.00 91 1014.3
20260904014502 69 229 5.2 14.8 0.00 0.06 0.00 92 1014.3
20260904014006 69 270 6.1 13.0 0.00 0.06 0.00 92 1014.4
20260904013503 69 220 7.0 13.0 0.00 0.06 0.00 92 1014.4
20260904013003 69 260 5.2 12.2 0.00 0.06 0.00 92 1014.5
20260904012509 69 215 4.3 10.4 0.00 0.06 0.00 92 1014.5
20260904012021 69 232 6.1 13.0 0.00 0.06 0.00 92 1014.7
20260904012005 69 229 5.2 10.4 0.00 0.06 0.00 92 1014.6
20260904011456 69 229 7.0 13.0 0.00 0.06 0.00 91 1015.0
20260904011446 69 207 7.0 13.9 0.00 0.06 0.00 92 1014.9
20260904011207 69 219 7.0 13.9 0.00 0.06 0.00 92 1014.8
20260904005957 69 125 7.8 14.8 0.00 0.06 0.00 91 1015.0
20260904005005 69 250 7.8 17.4 0.00 0.06 0.00 91 1015.0
20260904004506 69 216 7.0 17.4 0.00 0.06 0.00 91 1015.1
20260904004032 69 222 6.1 13.9 0.00 0.06 0.00 90 1015.3
20260904004022 69 224 7.0 13.9 0.00 0.06 0.00 90 1015.3
20260904004006 69 199 6.1 13.0 0.00 0.06 0.00 90 1015.1
20260904003516 69 201 6.1 13.0 0.00 0.06 0.00 90 1015.2
20260904002006 69 217 6.1 13.9 0.00 0.06 0.00 90 1015.3
20260904001606 69 206 6.1 15.6 0.00 0.06 0.00 90 1015.4
20260904001524 69 193 7.0 13.9 0.00 0.06 0.00 90 1015.4
20260904000504 70 218 5.2 15.6 0.00 0.06 0.00 90 1015.4
20260904000012 70 213 5.2 12.2 0.00 0.06 0.00 90 1015.4
20260903235504 70 243 4.3 12.2 0.00 0.06 0.00 90 1015.5
20260903235002 70 189 5.2 9.6 0.00 0.06 0.00 90 1015.6
20260903234507 70 203 5.2 11.3 0.00 0.06 0.00 90 1015.6
20260903234004 70 191 5.2 11.3 0.00 0.06 0.00 90 1015.7
20260903233503 70 266 5.2 12.2 0.00 0.06 0.00 90 1015.8
20260903233004 69 200 6.1 13.9 0.00 0.06 0.00 90 1015.7
20260903232626 70 223 4.3 10.4 0.00 0.06 0.00 90 1015.7
20260903232529 69 203 5.2 13.9 0.00 0.06 0.00 90 1015.6
20260903231504 69 185 5.2 10.4 0.00 0.06 0.00 90 1015.9
20260903231002 70 221 6.1 12.2 0.00 0.06 0.00 90 1016.0
20260903230501 70 235 6.1 12.2 0.00 0.06 0.00 90 1016.0
20260903225958 70 219 6.1 11.3 0.00 0.06 0.00 90 1016.0
20260903225500 69 204 6.1 14.8 0.00 0.06 0.00 90 1016.0
20260903224956 69 201 6.1 14.8 0.00 0.06 0.00 90 1016.0
20260903224501 69 190 6.1 12.2 0.00 0.06 0.00 90 1016.1
20260903223957 69 204 5.2 13.9 0.00 0.06 0.00 90 1016.2
20260903223459 69 183 4.3 13.9 0.00 0.06 0.00 90 1016.2
20260903222959 69 210 4.3 9.6 0.00 0.06 0.00 90 1016.3
20260903222500 70 238 3.5 9.6 0.00 0.06 0.00 90 1016.5
20260903222000 69 208 3.5 7.8 0.00 0.06 0.00 90 1016.4
20260903221500 70 227 4.3 9.6 0.00 0.06 0.00 90 1016.5
20260903221453 70 214 5.2 11.3 0.00 0.06 0.00 90 1016.6
20260903220502 70 231 6.1 11.3 0.00 0.06 0.00 90 1016.5
20260903215957 70 218 5.2 9.6 0.00 0.06 0.06 90 1016.5
20260903215946 70 166 5.2 11.3 0.00 0.06 0.06 90 1016.6
20260903214957 70 220 6.1 12.2 0.00 0.06 0.06 90 1016.7
20260903214450 69 158 7.0 14.8 0.00 0.06 0.06 90 1016.7
20260903213945 69 181 6.1 14.8 0.00 0.06 0.06 90 1016.8
20260903213446 69 207 4.3 11.3 0.00 0.06 0.06 90 1016.8
20260903212947 69 159 4.3 11.3 0.00 0.06 0.06 90 1016.9
20260903212446 69 237 4.3 11.3 0.00 0.06 0.06 90 1016.9
20260903211947 69 235 5.2 13.0 0.00 0.06 0.06 90 1016.9
20260903211532 69 241 5.2 12.2 0.00 0.06 0.06 90 1016.8
20260903211522 69 220 4.3 12.2 0.00 0.06 0.06 91 1016.9
20260903211454 69 177 5.2 13.0 0.00 0.06 0.06 90 1016.7
20260903210441 69 152 4.3 8.7 0.00 0.06 0.06 91 1017.0
20260903205448 69 216 5.2 13.9 0.00 0.06 0.06 91 1017.2
20260903204947 69 231 6.1 13.9 0.00 0.06 0.06 91 1017.3
20260903204446 69 197 5.2 9.6 0.00 0.06 0.06 92 1017.4